Regional Weather Roundup
Issued by NWS Little Rock, AR

Home | Current Version | Previous Version | Graphics & Text | Print | Product List | Glossary On
Versions: 1 2 3 4 5 6 7 8 9 10 11 12 13 14 15 16 17 18 19 20 21 22 23 24 25 26 27
000
ASUS44 KLZK 301205
RWRLZK

WEATHER ROUNDUP FOR ARKANSAS
NATIONAL WEATHER SERVICE LITTLE ROCK AR
700 AM CDT TUE AUG 30 2016

NOTE: "FAIR" INDICATES FEW OR NO CLOUDS BELOW 12,000 FEET WITH NO
SIGNIFICANT WEATHER AND/OR OBSTRUCTIONS TO VISIBILITY.

ARZ001-003-010-029-301300-
NORTHWEST ARKANSAS

CITY           SKY/WX    TMP DP  RH WIND       PRES   REMARKS
FAYETTEVILLE   FOG       67  67 100 CALM      30.15R VSB 1/4
6HR MIN TEMP:  67; 6HR MAX TEMP:  73;

FORT SMITH     FAIR      73  70  90 CALM      30.09R
6HR MIN TEMP:  72; 6HR MAX TEMP:  75;

HARRISON       FAIR      68  67  96 CALM      30.16R FOG
6HR MIN TEMP:  67; 6HR MAX TEMP:  72;

BENTONVILLE    FAIR      70  64  83 CALM      30.16R
6HR MIN TEMP:  70; 6HR MAX TEMP:  75;

ROGERS         FAIR      69  68  96 NE3       30.17R
6HR MIN TEMP:  69; 6HR MAX TEMP:  74;

SILOAM SPGS    FAIR     N/A N/A N/A E3        30.13R
HIGHFILL       FAIR      70  70 100 N6        30.15R
6HR MIN TEMP:  70; 6HR MAX TEMP:  76;

SPRINGDALE     CLEAR     70  70 100 E3        30.17R
$$

ARZ004-005-016-301300-
NORTH CENTRAL ARKANSAS

CITY           SKY/WX    TMP DP  RH WIND       PRES   REMARKS
BATESVILLE     FAIR      73  72  94 W3        30.10S
6HR MIN TEMP:  73; 6HR MAX TEMP:  75;

FLIPPIN        FAIR      70  66  88 CALM      30.11R
6HR MIN TEMP:  70; 6HR MAX TEMP:  73;

MTN HOME       FAIR      71  71 100 CALM      30.13R FOG
6HR MIN TEMP:  71; 6HR MAX TEMP:  75;

$$

ARZ040-041-301300-
WEST CENTRAL ARKANSAS

CITY           SKY/WX    TMP DP  RH WIND       PRES   REMARKS
MENA           FAIR      70  70 100 CALM      30.10S
MOUNT IDA      FAIR      71  70  96 CALM      30.07R FOG
6HR MIN TEMP:  71; 6HR MAX TEMP:  74;

$$

ARZ009-017-025-026-028-301300-
NORTHEAST ARKANSAS

CITY           SKY/WX    TMP DP  RH WIND       PRES   REMARKS
JONESBORO      FAIR      77  74  90 NE5       30.08R
6HR MIN TEMP:  77; 6HR MAX TEMP:  79;

NEWPORT        FAIR      74  74 100 N5        30.09R FOG
6HR MIN TEMP:  74; 6HR MAX TEMP:  77;

WALNUT RIDGE   FAIR      73  72  94 N6        30.09R
6HR MIN TEMP:  73; 6HR MAX TEMP:  77;

BLYTHEVILLE    FAIR      75  74  96 CALM      30.08R
6HR MIN TEMP:  73; 6HR MAX TEMP:  76;

$$

ARZ022-023-033-042-044-301300-
CENTRAL ARKANSAS

CITY           SKY/WX    TMP DP  RH WIND       PRES   REMARKS
LITTLE ROCK    FAIR      78  73  84 CALM      30.07R
6HR MIN TEMP:  78; 6HR MAX TEMP:  81;

JACKSONVILLE   FAIR      75  74  99 CALM      30.06R
6HR MIN TEMP:  74; 6HR MAX TEMP:  78;

SEARCY         FAIR      76  75  97 N3        30.09R
6HR MIN TEMP:  76; 6HR MAX TEMP:  78;

HOT SPRINGS    FAIR      75  73  93 CALM      30.07R
6HR MIN TEMP:  74; 6HR MAX TEMP:  78;

RUSSELLVILLE   FAIR      71  71 100 CALM      30.08R FOG
6HR MIN TEMP:  71; 6HR MAX TEMP:  73;

$$

ARZ036-301300-
EAST ARKANSAS

CITY           SKY/WX    TMP DP  RH WIND       PRES   REMARKS
WEST MEMPHIS   FAIR      74  73  97 CALM      30.06R FOG
6HR MIN TEMP:  74; 6HR MAX TEMP:  78;

$$

ARZ050-053-066-070-073-301300-
SOUTHWEST ARKANSAS

CITY           SKY/WX    TMP DP  RH WIND       PRES   REMARKS
ARKADELPHIA    FAIR      76  74  93 NE3       30.05R
6HR MIN TEMP:  74; 6HR MAX TEMP:  78;

TEXARKANA      FAIR      74  72  93 NE3       30.04R FOG
6HR MIN TEMP:  74; 6HR MAX TEMP:  77;

EL DORADO      FAIR      73  72  96 CALM      30.03R
6HR MIN TEMP:  72; 6HR MAX TEMP:  75;

DE QUEEN       FAIR      72  72 100 CALM      30.03R FOG
6HR MIN TEMP:  72; 6HR MAX TEMP:  75;

$$

ARZ056-057-069-301300-
SOUTHEAST ARKANSAS

CITY           SKY/WX    TMP DP  RH WIND       PRES   REMARKS
PINE BLUFF     FAIR      74  73  97 N3        30.05R FOG
6HR MIN TEMP:  73; 6HR MAX TEMP:  76;

STUTTGART      MOCLDY    75  72  88 N6        30.06R
6HR MIN TEMP:  73; 6HR MAX TEMP:  77;

MONTICELLO     FAIR      78  74  87 CALM      30.04R
6HR MIN TEMP:  77; 6HR MAX TEMP:  79;


$$






USA.gov is the U.S. government's official web portal to all federal, state and local government web resources and services.